Location: Bun Machan
(52.1403°N, 7.3744°W)
Time: 19:14:40
(UTC+00:00)

Cosmos 2242 Rocket - Pass Details

Date: 14 July 2020
Orbit: 618 x 652 km, 82.5° (Epoch: 12 August)

Event Time Altitude Azimuth Distance (km) Brightness Sun altitude
Rises 01:39:22 0° 347° (NNW) 2,984 8.2 -14.9°
Reaches altitude 10° 01:41:39 10° 344° (NNW) 2,065 7.2 -14.8°
Maximum altitude 01:46:12 66° 263° (W) 710 3.7 -14.6°
Enters shadow 01:48:53 24° 187° (S) 1,350 4.7 -14.5°
